[[{"header":{"parameterUnit":"m.s-1","parameterCategory":1,"la1":30.2991,"la2":30.254,"lo1":-89.0895,"lo2":-89.0444,"dy":0.0017,"dx":0.0017,"nx":28,"ny":28,"refTime":"2024-04-23T09:00:00:Z","depth":0,"parameterNumber":2,"parameterNumberName":"U-component_of_WINDS"},"data":[0,0,0,0,0,0,0,0,0,0,0,0,0,0,0,0,0,0,0,0,0,0,0,0,0,0,0,0,0,0,0,0,0,0,0,0,0,0,0,0,0,0,0,0,0,0,0,0,0,0,0,0,0,0,0,0,0,0,0.0757,0.0758,0,0.0812,0.0813,0.0813,0.0855,0.0855,0.0856,0.0856,0.0911,0.0912,0.0913,0,0,0,0,0,0,0,0,0,0,0,0,0,0.0686,0.0687,0.0757,0.0758,0.0758,0.0812,0.0813,0.0813,0.0855,0.0855,0.0856,0.0856,0.0911,0.0912,0.0913,0,0,0,0,0,0,0,0,0,0,0,0,0,0.0726,0.0687,0.0757,0.0786,0.0789,0.0812,0.0813,0.0813,0.0855,0.0855,0.0856,0.0857,0.091,0.0912,0.0913,0.0912,0,0,0.0918,0.0919,0,0,0,0,0,0,0,0,0.0724,0.0729,0.0781,0.0784,0.0787,0.0827,0.0808,0.0846,0.0855,0.083,0.0856,0.0857,0.0883,0.0887,0.0896,0.0914,0.0917,0.0919,0.092,0.092,0.0921,0,0,0,0,0,0,0,0.0721,0.0727,0.0779,0.0781,0.0785,0.0795,0.0801,0.0815,0.0852,0.0832,0.0835,0.0841,0.0884,0.0894,0.0897,0.0918,0.0919,0.092,0.0921,0.0922,0.0936,0.0936,0,0,0,0,0,0,0.0714,0.0724,0.0777,0.078,0.0756,0.0796,0.0803,0.0814,0.0852,0.0859,0.0841,0.0843,0.0891,0.0895,0.0899,0.0899,0.092,0.0922,0.0923,0.0937,0.0936,0.0936,0,0,0,0,0,0,0.0712,0.0718,0.0775,0.0753,0.0761,0.0796,0.0808,0.0815,0.0824,0.0859,0.0865,0.0843,0.0891,0.0897,0.0908,0.0901,0.0923,0.0924,0.0938,0.0937,0.0936,0.0898,0,0,0,0,0,0,0.071,0.0718,0.0718,0.0753,0.0762,0.0783,0.0808,0.0815,0.0827,0.083,0.0863,0.0869,0.0892,0.0905,0.091,0.0904,0.0925,0.0938,0.0937,0.0936,0.09,0.0896,0.0893,0,0,0,0,0,0.0708,0.0705,0.0718,0.0724,0.0763,0.0783,0.0788,0.0815,0.0826,0.0826,0.0848,0.0868,0.0901,0.0906,0.0911,0.0906,0.0939,0.0938,0.0936,0.0902,0.0897,0.0893,0,0,0,0,0,0,0.0668,0.071,0.0725,0.0733,0.0754,0.079,0.0791,0.0809,0.0827,0.0829,0.0862,0.0869,0.0876,0.0893,0.0897,0.0906,0.0923,0.0922,0.0895,0.089,0.0887,0.0882,0.0927,0,0,0,0,0,0.066,0.0673,0.0709,0.0713,0.0723,0.0755,0.0765,0.0784,0.0806,0.0815,0.0838,0.0859,0.0874,0.0883,0.0899,0.0903,0.091,0.0902,0.0898,0.0895,0.0894,0.0896,0.0892,0.0931,0.0931,0.0931,0,0,0.0644,0.0669,0.0675,0.0706,0.0724,0.0736,0.0762,0.0774,0.0783,0.0817,0.0829,0.0846,0.0871,0.0878,0.0883,0.0892,0.0884,0.0893,0.089,0.0891,0.0894,0.089,0.0887,0.093,0.0931,0.0931,0,0,0.0621,0.0642,0.0647,0.0665,0.0692,0.0713,0.0714,0.0747,0.076,0.0773,0.0798,0.0809,0.0835,0.0851,0.0863,0.0845,0.0864,0.085,0.083,0.0831,0.0828,0.0825,0.0818,0.0815,0.0849,0.0849,0.0849,0,0.0598,0.0617,0.0647,0.0657,0.0669,0.0701,0.0706,0.0722,0.0753,0.076,0.077,0.0803,0.0822,0.0833,0.0828,0.0837,0.0839,0.0846,0.0826,0.0824,0.0822,0.0815,0.0812,0.0847,0.0847,0.0847,0.0847,0,0.0586,0.0599,0.06,0.0629,0.0642,0.0649,0.0679,0.0688,0.0706,0.0726,0.0737,0.0762,0.0783,0.0787,0.0805,0.08,0.0805,0.082,0.0838,0.0815,0.0809,0.0807,0.0844,0.0845,0.0845,0.0846,0,0,0.0539,0.0585,0.0584,0.0598,0.063,0.064,0.0649,0.0669,0.0676,0.0696,0.0703,0.0724,0.0738,0.0751,0.0771,0.0773,0.0755,0.0788,0.0789,0.078,0.075,0.0737,0.0734,0.0768,0.0768,0.0767,0.0747,0,0.052,0.0537,0.0564,0.0572,0.0584,0.0614,0.0621,0.0641,0.066,0.0672,0.0692,0.0706,0.0725,0.0732,0.0735,0.0757,0.0749,0.0759,0.0774,0.0774,0.0765,0.0731,0.0718,0.0698,0.0745,0.0745,0.0745,0,0.05,0.0519,0.0528,0.0559,0.0564,0.057,0.0591,0.0602,0.0626,0.0639,0.0653,0.0675,0.0684,0.0701,0.0713,0.0719,0.0727,0.0738,0.0738,0.0739,0.0757,0.073,0.0692,0.0688,0.0742,0.0742,0.0742,0,0.0463,0.049,0.0499,0.051,0.0546,0.0549,0.0565,0.0588,0.0599,0.0617,0.0623,0.0642,0.0652,0.0666,0.0691,0.0701,0.07,0.072,0.0711,0.071,0.0708,0.0708,0.0669,0.0715,0.0715,0.0715,0.0715,0,0.0438,0.0442,0.0483,0.0488,0.0493,0.0524,0.0528,0.0546,0.0566,0.0575,0.0603,0.061,0.0644,0.0655,0.0675,0.0681,0.0686,0.0696,0.0701,0.0693,0.0691,0.0698,0.0699,0.0715,0.0715,0.0715,0.0715,0,0.0397,0.0425,0.0436,0.047,0.0478,0.048,0.0509,0.0514,0.0535,0.0545,0.0549,0.058,0.0595,0.0622,0.0644,0.0657,0.0659,0.0669,0.0651,0.0654,0.0643,0.0643,0.0606,0.0602,0.0652,0.0651,0.0651,0,0.0379,0.0383,0.0417,0.0424,0.0439,0.0451,0.0462,0.0492,0.0502,0.0528,0.053,0.0547,0.0561,0.0582,0.0607,0.0623,0.0633,0.0619,0.0635,0.0627,0.0631,0.063,0.063,0.0615,0.0614,0.0613,0.0613,0,0.0343,0.0356,0.0371,0.039,0.0402,0.0418,0.0436,0.0441,0.0475,0.0484,0.0499,0.0511,0.0533,0.0548,0.0569,0.0584,0.0603,0.0608,0.0606,0.0597,0.0586,0.059,0.0639,0.0608,0.0609,0.0609,0.0609,0.0609,0.0312,0.0316,0.034,0.0355,0.0372,0.0388,0.0394,0.0415,0.0429,0.0449,0.0466,0.0479,0.0502,0.0531,0.0544,0.0555,0.0564,0.0562,0.0562,0.056,0.0556,0.0586,0.0559,0.0559,0.0559,0.0559,0.0559,0,0.0276,0.0293,0.0307,0.0331,0.0342,0.0361,0.0381,0.0389,0.0401,0.042,0.0434,0.045,0.0465,0.0491,0.0508,0.0511,0.052,0.0514,0.0514,0.0516,0.0548,0.0546,0.0506,0.0506,0.0506,0.0506,0.0506,0.0506,0.0258,0.0266,0.0282,0.0298,0.0315,0.0329,0.0338,0.0353,0.0368,0.0386,0.0398,0.0415,0.0437,0.0455,0.0469,0.0476,0.0481,0.0471,0.0481,0.0509,0.0514,0.0519,0.0518,0.0472,0.0472,0.0449,0.0449,0.0448]},{"header":{"parameterUnit":"m.s-1","parameterCategory":1,"la1":30.2991,"la2":30.254,"lo1":-89.0895,"lo2":-89.0444,"dy":0.0017,"dx":0.0017,"nx":28,"ny":28,"refTime":"2024-04-23T09:00:00:Z","depth":0,"parameterNumber":3,"parameterNumberName":"V-component_of_WINDS"},"data":[0,0,0,0,0,0,0,0,0,0,0,0,0,0,0,0,0,0,0,0,0,0,0,0,0,0,0,0,0,0,0,0,0,0,0,0,0,0,0,0,0,0,0,0,0,0,0,0,0,0,0,0,0,0,0,0,0,0,4.0719,4.0719,0,4.0718,4.0718,4.0718,4.0655,4.0653,4.0651,4.065,4.0648,4.065,4.0651,0,0,0,0,0,0,0,0,0,0,0,0,0,4.0667,4.0669,4.0719,4.0719,4.0719,4.0718,4.0718,4.0718,4.0655,4.0653,4.0651,4.0649,4.0648,4.065,4.0652,0,0,0,0,0,0,0,0,0,0,0,0,0,4.068,4.0669,4.0719,4.0688,4.0685,4.0718,4.0718,4.0718,4.0655,4.0653,4.065,4.0648,4.0647,4.065,4.0652,4.0715,0,0,4.0659,4.066,0,0,0,0,0,0,0,0,4.068,4.0682,4.0692,4.069,4.0687,4.0684,4.0699,4.0717,4.0656,4.0667,4.065,4.0647,4.0662,4.0663,4.0668,4.0715,4.0715,4.0659,4.066,4.0661,4.0662,0,0,0,0,0,0,0,4.0679,4.0682,4.0719,4.0693,4.0689,4.0673,4.0673,4.0702,4.0678,4.0665,4.0661,4.0662,4.066,4.0666,4.0668,4.0715,4.0659,4.0661,4.0662,4.0663,4.081,4.0813,0,0,0,0,0,0,4.0682,4.0682,4.0719,4.0719,4.0677,4.0676,4.0675,4.0687,4.0678,4.0674,4.0664,4.0659,4.0664,4.0665,4.0667,4.0738,4.0661,4.0663,4.0664,4.0808,4.0811,4.0814,0,0,0,0,0,0,4.0681,4.0686,4.0719,4.0699,4.0702,4.068,4.0694,4.0689,4.0694,4.0676,4.0672,4.0674,4.0662,4.0664,4.0703,4.0738,4.0664,4.0666,4.0805,4.0809,4.0812,4.0882,0,0,0,0,0,0,4.068,4.0686,4.071,4.07,4.0703,4.0755,4.0696,4.069,4.0698,4.0692,4.0685,4.0681,4.066,4.07,4.0705,4.0739,4.0668,4.0802,4.0807,4.0811,4.0877,4.0888,4.0898,0,0,0,0,0,4.0678,4.073,4.0712,4.0716,4.0732,4.0757,4.0759,4.0733,4.0702,4.0725,4.0713,4.0682,4.0734,4.0704,4.071,4.0745,4.0799,4.0805,4.0811,4.0872,4.0886,4.0898,0,0,0,0,0,0,4.0746,4.0729,4.0707,4.0758,4.0759,4.0746,4.0775,4.0749,4.0759,4.0752,4.072,4.0719,4.0762,4.0758,4.0726,4.0805,4.0761,4.0768,4.0806,4.0819,4.0829,4.0828,4.067,0,0,0,0,0,4.0767,4.0788,4.0772,4.0817,4.0819,4.0797,4.0807,4.0787,4.0787,4.0787,4.0778,4.078,4.0796,4.0807,4.0822,4.0877,4.0873,4.0904,4.0914,4.0923,4.0929,4.0956,4.0968,4.0833,4.0833,4.0833,0,0,4.081,4.0803,4.0818,4.0831,4.0829,4.0851,4.0798,4.0824,4.084,4.0791,4.0826,4.082,4.0819,4.0866,4.0886,4.0864,4.0966,4.093,4.0937,4.0938,4.0963,4.0976,4.0987,4.0837,4.0836,4.0835,0,0,4.0898,4.0896,4.0933,4.0933,4.0931,4.0916,4.0925,4.0916,4.0909,4.0944,4.0908,4.0926,4.0956,4.0956,4.096,4.1048,4.1019,4.1054,4.1108,4.1135,4.1145,4.1155,4.1184,4.1195,4.106,4.1061,4.1061,0,4.0952,4.0983,4.0955,4.0983,4.0989,4.0946,4.0982,4.0983,4.0987,4.0992,4.0967,4.1002,4.0998,4.1043,4.1065,4.107,4.1078,4.1054,4.1146,4.1155,4.1163,4.1191,4.1202,4.1065,4.1064,4.1064,4.1063,0,4.1048,4.1071,4.1101,4.1104,4.1113,4.1146,4.1122,4.1135,4.1114,4.1102,4.1137,4.1132,4.1143,4.1153,4.1134,4.1195,4.1181,4.1152,4.1106,4.1181,4.1206,4.1217,4.1071,4.1069,4.1068,4.1067,0,0,4.1179,4.1165,4.1177,4.1177,4.1172,4.1188,4.1218,4.1229,4.124,4.1244,4.1267,4.1293,4.1265,4.127,4.125,4.1274,4.1342,4.1242,4.1241,4.1258,4.1407,4.1427,4.144,4.1323,4.1325,4.1327,4.1406,0,4.1263,4.1312,4.1287,4.134,4.1359,4.1318,4.1344,4.1344,4.1333,4.1348,4.1336,4.1353,4.1317,4.1319,4.1341,4.1329,4.1371,4.1323,4.1343,4.1344,4.1342,4.1454,4.1476,4.1551,4.1416,4.1418,4.1419,0,4.1367,4.1374,4.1428,4.1418,4.1425,4.1449,4.1455,4.1471,4.1469,4.1459,4.1464,4.1439,4.1467,4.1424,4.1461,4.1429,4.1436,4.1432,4.1434,4.1433,4.1385,4.1454,4.1574,4.1585,4.1435,4.1434,4.1433,0,4.1454,4.1477,4.1512,4.1514,4.1503,4.152,4.1517,4.1513,4.152,4.1527,4.1531,4.1541,4.1546,4.1555,4.1532,4.1503,4.1572,4.1528,4.1564,4.1564,4.1578,4.1577,4.17,4.1587,4.1587,4.1587,4.1586,0,4.1549,4.1583,4.155,4.1572,4.1608,4.158,4.1617,4.1609,4.1606,4.1624,4.1591,4.1609,4.1579,4.1594,4.1577,4.161,4.1613,4.1605,4.16,4.1607,4.1608,4.1609,4.1603,4.159,4.1589,4.1588,4.1588,0,4.1651,4.1631,4.1666,4.1653,4.165,4.1678,4.1666,4.1685,4.1672,4.1696,4.17,4.1679,4.1695,4.1674,4.1689,4.1677,4.1721,4.1709,4.1721,4.1716,4.1753,4.1749,4.1879,4.1894,4.1774,4.1775,4.1776,0,4.1712,4.1737,4.1726,4.1736,4.1734,4.1751,4.1758,4.1731,4.1739,4.1739,4.1757,4.1771,4.1779,4.1807,4.1793,4.1804,4.179,4.1835,4.1791,4.1797,4.1788,4.1786,4.1787,4.1843,4.1845,4.1846,4.1847,0,4.1822,4.181,4.1822,4.1829,4.1838,4.1843,4.1846,4.1856,4.1827,4.1839,4.1854,4.1861,4.1875,4.1888,4.1895,4.1891,4.1864,4.1861,4.1869,4.1876,4.1881,4.1876,4.1743,4.1858,4.1857,4.1856,4.1855,4.1855,4.1904,4.1923,4.1918,4.1931,4.193,4.1933,4.1949,4.1938,4.195,4.1958,4.1942,4.1961,4.1958,4.1964,4.1964,4.1978,4.1959,4.1972,4.1974,4.1977,4.1982,4.1881,4.198,4.1979,4.1979,4.1979,4.1978,0,4.2009,4.2004,4.2016,4.202,4.203,4.2004,4.2005,4.2015,4.2032,4.2032,4.2041,4.2058,4.207,4.2057,4.2067,4.2081,4.2069,4.2084,4.2082,4.2081,4.2,4.199,4.2094,4.2094,4.2094,4.2094,4.2094,4.2094,4.2065,4.2096,4.2084,4.2113,4.2108,4.2125,4.2128,4.213,4.2129,4.2149,4.2159,4.215,4.2145,4.2153,4.2163,4.2159,4.2163,4.2183,4.2174,4.2098,4.2087,4.2076,4.2067,4.2185,4.2185,4.2254,4.2254,4.2255]}]]